Location: Arbon
(43.0005°N, 0.7472°E)
Time: 21:03:06
(UTC+00:00)

Altair - Pass Details

Date: 30 November 2020
Orbit: 1501 x 1682 km, 47.2° (Epoch: 26 January)

Event Time Altitude Azimuth Distance (km) Brightness Sun altitude
Rises 04:30:56 0° 287° (WNW) 4,640 - -28.0°
Reaches altitude 10° 04:35:36 10° 267° (W) 3,667 - -27.2°
Maximum altitude 04:40:20 15° 235° (SW) 3,282 - -26.3°
Exits shadow 04:42:50 14° 218° (SW) 3,410 9.0 -25.9°
Drops below altitude 10° 04:45:07 10° 204° (SSW) 3,708 9.3 -25.5°
Sets 04:49:56 0° 183° (S) 4,722 10.1 -24.6°
